Bloomington, IN

1:19 AM EDT on March 27, 2017 (GMT -0400)
Monroe County

Weather History for KBMG - April, 2013

Change the Weather History Date:

Friday, April 19, 2013

  Actual Average Record
Temperature  
Mean Temperature 42 °F 55 °F  
Max Temperature 48 °F 66 °F 84 °F (2002)
Min Temperature 36 °F 43 °F 34 °F (1999)
Degree Days  
Heating Degree Days 23 11  
Month to date heating degree days 216 257  
Since 1 July heating degree days 5042 5013  
Cooling Degree Days 0 1  
Month to date cooling degree days 11 11  
Year to date cooling degree days 11 14  
Moisture  
Dew Point 35 °F    
Average Humidity 78    
Maximum Humidity 96    
Minimum Humidity 60    
Precipitation  
Precipitation 0.45 in 0.15 in 1.94 in (2011)
Month to date precipitation 3.97 2.88  
Year to date precipitation 14.22 12.83  
Sea Level Pressure  
Sea Level Pressure 29.75 in    
Wind  
Wind Speed 11 mph (West)    
Max Wind Speed 22 mph    
Max Gust Speed 31 mph    
Visibility 8 miles    
Events Rain    
T = Trace of Precipitation, MM = Missing Value Source: NWS Daily Summary

Daily Weather History Graph

Daily Weather History Graph

Search for Another Location

Airport or City:

Trip Planner

Search our weather history database for the weather conditions in past years. The results will help you decide how hot, cold, wet, or windy it might be!

Date:

Astronomy

Apr. 19, 2013 Rise Set
Actual Time 7:03 AM EDT 8:28 PM EDT
Civil Twilight 6:35 AM EDT 8:56 PM EDT
Nautical Twilight 6:02 AM EDT 9:29 PM EDT
Astronomical Twilight 5:26 AM EDT 10:05 PM EDT
Moon 2:14 PM EDT (4/19) 3:16 AM EDT (4/19)
Length of Visible Light 14h 20m
Length of Day
13h 24m
First Quarter, 61% of the Moon is Illuminated
Apr 19
First Quarter
Apr 25
Full
May 2
Last Quarter
May 9
New
May 18
First Quarter

Hourly Weather History & Observations

Time (EDT) Temp. Windchill Dew Point Humidity Pressure Visibility Wind Dir Wind Speed Gust Speed Precip Events Conditions
12:24 AM 51.8 °F - 51.8 °F 100% 29.60 in 4.0 mi NW 11.5 mph 20.7 mph 0.11 in Rain Rain
12:53 AM 48.0 °F - 46.9 °F 96% 29.57 in 4.0 mi NNW 10.4 mph 16.1 mph 0.19 in Rain Rain
1:45 AM 46.4 °F 41.9 °F 44.6 °F 93% 29.60 in 2.5 mi WNW 9.2 mph - 0.19 in Rain Heavy Rain
1:51 AM 46.4 °F 41.9 °F 44.6 °F 93% 29.60 in 3.0 mi WNW 9.2 mph - 0.22 in Rain Heavy Rain
1:53 AM 46.0 °F 41.9 °F 45.0 °F 96% 29.60 in 3.0 mi WNW 8.1 mph - 0.22 in Rain Rain
2:09 AM 44.6 °F 39.2 °F 44.6 °F 100% 29.61 in 4.0 mi NW 10.4 mph 16.1 mph 0.07 in Rain Rain
2:23 AM 44.6 °F 38.1 °F 42.8 °F 93% 29.62 in 3.0 mi WNW 13.8 mph 20.7 mph 0.13 in Rain Heavy Rain
2:53 AM 43.0 °F 35.7 °F 41.0 °F 93% 29.63 in 10.0 mi WNW 15.0 mph 26.5 mph 0.19 in Rain Light Rain
3:17 AM 42.8 °F 38.0 °F 41.0 °F 93% 29.60 in 8.0 mi WNW 8.1 mph 18.4 mph 0.02 in Rain Light Rain
3:34 AM 42.8 °F 36.2 °F 41.0 °F 93% 29.62 in 4.0 mi WNW 12.7 mph 19.6 mph 0.03 in Rain Light Rain
3:41 AM 42.8 °F 37.5 °F 39.2 °F 87% 29.61 in 6.0 mi WNW 9.2 mph - 0.04 in Rain Light Rain
3:48 AM 42.8 °F 37.5 °F 41.0 °F 93% 29.61 in 10.0 mi WNW 9.2 mph - 0.04 in Rain Light Rain
3:53 AM 42.1 °F 36.6 °F 39.9 °F 92% 29.61 in 10.0 mi WNW 9.2 mph - 0.04 in Rain Light Rain
4:53 AM 41.0 °F 35.2 °F 39.0 °F 93% 29.61 in 10.0 mi WNW 9.2 mph - 0.00 in   Overcast
5:29 AM 39.2 °F 31.2 °F 35.6 °F 87% 29.65 in 10.0 mi WNW 13.8 mph 21.9 mph N/A   Overcast
5:53 AM 39.9 °F 32.5 °F 35.1 °F 83% 29.65 in 10.0 mi West 12.7 mph 17.3 mph N/A   Overcast
6:53 AM 39.0 °F 32.3 °F 32.0 °F 76% 29.68 in 10.0 mi WNW 10.4 mph 19.6 mph N/A   Overcast
7:53 AM 39.0 °F 30.6 °F 32.0 °F 76% 29.72 in 10.0 mi West 15.0 mph 20.7 mph N/A   Overcast
8:53 AM 37.9 °F 30.0 °F 28.9 °F 70% 29.74 in 10.0 mi West 12.7 mph - N/A   Overcast
9:53 AM 37.9 °F 29.6 °F 30.0 °F 73% 29.77 in 10.0 mi West 13.8 mph 23.0 mph 0.00 in   Overcast
10:53 AM 37.9 °F 31.5 °F 30.0 °F 73% 29.79 in 10.0 mi WSW 9.2 mph 28.8 mph N/A   Overcast
11:13 AM 37.4 °F 28.9 °F 28.4 °F 70% 29.79 in 10.0 mi West 13.8 mph 20.7 mph N/A   Overcast
11:53 AM 39.9 °F 32.1 °F 28.0 °F 63% 29.80 in 10.0 mi West 13.8 mph 25.3 mph N/A   Overcast
12:53 PM 39.9 °F 31.1 °F 28.9 °F 65% 29.81 in 10.0 mi WSW 17.3 mph 27.6 mph 0.00 in Rain Light Rain
1:53 PM 39.9 °F 31.1 °F 28.9 °F 65% 29.84 in 10.0 mi West 17.3 mph 27.6 mph 0.00 in   Overcast
2:53 PM 39.9 °F 31.4 °F 28.9 °F 65% 29.85 in 10.0 mi West 16.1 mph 23.0 mph 0.00 in   Overcast
3:53 PM 39.9 °F 32.5 °F 28.0 °F 63% 29.86 in 10.0 mi WSW 12.7 mph 28.8 mph N/A   Overcast
4:53 PM 39.9 °F 31.8 °F 28.0 °F 63% 29.87 in 10.0 mi West 15.0 mph 24.2 mph 0.00 in   Overcast
5:53 PM 39.9 °F 33.4 °F 28.0 °F 63% 29.90 in 10.0 mi West 10.4 mph 24.2 mph N/A   Overcast
6:53 PM 41.0 °F 33.9 °F 28.9 °F 62% 29.92 in 10.0 mi WSW 12.7 mph 19.6 mph N/A   Overcast
7:53 PM 41.0 °F 36.4 °F 30.9 °F 67% 29.94 in 10.0 mi West 6.9 mph - 0.00 in   Overcast
8:19 PM 39.2 °F 30.8 °F 32.0 °F 75% 29.94 in 7.0 mi West 15.0 mph 23.0 mph 0.00 in Rain Light Rain
8:40 PM 37.4 °F 33.8 °F 33.8 °F 87% 29.94 in 10.0 mi West 4.6 mph - 0.01 in   Overcast
8:53 PM 39.0 °F 36.8 °F 33.1 °F 79% 29.96 in 10.0 mi WSW 3.5 mph - 0.01 in   Overcast
9:53 PM 39.9 °F 33.4 °F 32.0 °F 73% 29.99 in 10.0 mi WSW 10.4 mph 18.4 mph N/A   Overcast
10:53 PM 37.9 °F 32.7 °F 34.0 °F 86% 30.01 in 10.0 mi WSW 6.9 mph - 0.00 in   Mostly Cloudy
11:53 PM 37.9 °F 33.5 °F 33.1 °F 83% 30.02 in 10.0 mi West 5.8 mph - N/A   Scattered Clouds